Location: Unspecified
(35.6961°N, 0.0000°E)
Time: 03:14:34
(UTC+00:00)

S-56A Canister/Altair - Pass Details

Date: 04 June 2019
Orbit: 633 x 2499 km, 38.9° (Epoch: 18 June)

Event Time Altitude Azimuth Distance (km) Brightness Sun altitude
Rises 19:14:56 0° 200° (SSW) 3,323 10.7 -1.3°
Reaches altitude 10° 19:18:47 10° 175° (S) 2,170 9.5 -2.0°
Maximum altitude 19:21:10 14° 145° (SE) 1,846 9.0 -2.4°
Drops below altitude 10° 19:23:24 10° 114° (ESE) 2,022 9.0 -2.8°
Sets 19:26:44 0° 87° (E) 2,920 10.0 -3.4°
